Location: Muenchen
(48.1800°N, 11.5800°E)
Time: 13:03:10
(UTC+01:00)

Vanguard 2 Rocket - Visible Passes

Search period start: 12 December 2017 00:00
Search period end: 22 December 2017 00:00
Orbit: 555 x 3326 km, 32.9° (Epoch: 11 December)

Date Brightness Start Highest point End Pass type
(mag) Time Alt. Az. Time Alt. Az. Time Alt. Az.
12 Dec 10.0 18:15:37 10° S 18:24:52 23° SE 18:32:03 18° ESE visible
12 Dec 9.6 20:25:14 10° SW 20:37:51 43° SSE 20:37:51 43° SSE visible
12 Dec 10.3 22:38:24 10° WSW 22:43:39 25° WSW 22:43:39 25° WSW visible
13 Dec 10.2 17:19:19 10° SSE 17:25:27 15° SE 17:32:59 10° ESE visible
13 Dec 9.7 19:26:28 10° SW 19:38:08 37° SSE 19:41:38 34° SE visible
13 Dec 9.9 21:38:29 10° WSW 21:47:26 39° SW 21:47:26 39° SW visible
13 Dec 10.9 23:53:06 10° W 23:53:14 10° W 23:53:14 10° W visible
14 Dec 9.8 18:28:18 10° SSW 18:38:05 29° SE 18:45:25 21° ESE visible
14 Dec 9.5 20:39:03 10° SW 20:51:13 46° S 20:51:13 46° S visible
14 Dec 10.4 22:52:36 10° WSW 22:57:01 23° WSW 22:57:01 23° WSW visible
15 Dec 9.9 17:30:56 10° S 17:38:32 21° SE 17:48:49 10° E visible
15 Dec 9.5 19:40:05 10° SW 19:51:42 41° SSE 19:54:59 38° SE visible
15 Dec 9.9 21:52:37 10° WSW 22:00:47 36° SW 22:00:47 36° SW visible
16 Dec 9.6 18:41:36 10° SSW 18:51:31 34° SSE 18:58:45 25° ESE visible
16 Dec 9.5 20:53:05 10° WSW 21:04:33 46° S 21:04:33 46° S visible
16 Dec 10.5 23:06:59 10° W 23:10:21 19° WSW 23:10:21 19° WSW visible
17 Dec 9.7 17:43:42 10° SSW 17:51:50 26° SE 18:02:31 12° E visible
17 Dec 9.5 19:53:58 10° SW 20:05:27 44° SSE 20:08:19 41° SSE visible
17 Dec 10.0 22:06:54 10° WSW 22:14:07 32° SW 22:14:07 32° SW visible
18 Dec 9.8 16:46:40 10° S 16:52:35 18° SE 17:00:29 10° ESE visible
18 Dec 9.4 18:55:17 10° SW 19:05:10 38° SSE 19:12:05 27° ESE visible
18 Dec 9.6 21:07:17 10° WSW 21:17:53 43° SSW 21:17:53 43° SSW visible
18 Dec 10.6 23:21:37 10° W 23:23:41 15° WSW 23:23:41 15° WSW visible
19 Dec 9.5 17:57:04 10° SSW 18:05:21 31° SSE 18:15:52 14° ESE visible
19 Dec 9.4 20:08:05 10° WSW 20:19:19 44° S 20:21:41 42° SSE visible
19 Dec 10.1 22:21:22 10° WSW 22:27:28 27° WSW 22:27:28 27° WSW visible
20 Dec 9.6 16:59:24 10° SSW 17:05:58 23° SE 17:15:27 10° E visible
20 Dec 9.4 19:09:16 10° SW 19:18:59 40° SSE 19:25:29 29° SE visible
20 Dec 9.7 21:21:39 10° WSW 21:31:17 39° SSW 21:31:17 39° SSW visible
20 Dec 10.7 23:36:39 10° W 23:37:05 11° WSW 23:37:05 11° WSW visible
21 Dec 9.3 18:10:49 10° SW 18:19:04 35° SSE 18:29:19 16° ESE visible
21 Dec 9.5 20:22:22 10° WSW 20:33:16 42° S 20:35:08 40° S visible
21 Dec 10.3 22:36:08 10° WSW 22:40:56 22° WSW 22:40:56 22° WSW visible
